�������l�o���
Date,Time,MP-1(��Sv/h),MP-2(��Sv/h),MP-3(��Sv/h),MP-4(��Sv/h),MP-5(��Sv/h),MP-6(��Sv/h),MP-7(��Sv/h),MP-8(��Sv/h),����,����(m/s),���J
2023/01/17,00:00,0.553,0.796,0.502,1.023,0.708,0.318,0.576,0.549,���k��,2.1,��
2023/01/17,00:10,0.552,0.796,0.501,1.023,0.706,0.317,0.576,0.550,���k��,2.3,��
2023/01/17,00:20,0.554,0.795,0.500,1.023,0.706,0.317,0.576,0.549,���k��,2.1,��
2023/01/17,00:30,0.554,0.794,0.502,1.022,0.707,0.317,0.575,0.549,���k��,2.1,��
2023/01/17,00:40,0.554,0.795,0.501,1.023,0.708,0.317,0.578,0.549,���k��,2.1,��
2023/01/17,00:50,0.552,0.796,0.501,1.023,0.706,0.318,0.576,0.547,���k��,2.4,��
2023/01/17,01:00,0.552,0.796,0.500,1.022,0.708,0.318,0.576,0.547,�k��,2.5,��
2023/01/17,01:10,0.552,0.795,0.501,1.023,0.706,0.318,0.577,0.550,�k��,3.0,��
2023/01/17,01:20,0.552,0.796,0.500,1.023,0.706,0.318,0.576,0.547,�k��,2.4,��
2023/01/17,01:30,0.552,0.796,0.500,1.024,0.706,0.318,0.575,0.548,���k��,2.3,��
2023/01/17,01:40,0.552,0.796,0.500,1.021,0.706,0.317,0.576,0.549,��,2.1,��
2023/01/17,01:50,0.552,0.795,0.499,1.023,0.706,0.317,0.574,0.549,���쐼,2.0,��
2023/01/17,02:00,0.552,0.795,0.501,1.023,0.706,0.317,0.576,0.548,���쐼,2.1,��
2023/01/17,02:10,0.551,0.795,0.500,1.021,0.707,0.317,0.577,0.548,��,2.6,��
2023/01/17,02:20,0.552,0.795,0.500,1.022,0.706,0.316,0.577,0.547,��,2.3,��
2023/01/17,02:30,0.552,0.794,0.500,1.023,0.707,0.316,0.576,0.547,��,2.5,��
2023/01/17,02:40,0.553,0.793,0.500,1.021,0.706,0.317,0.576,0.549,��,2.8,��
2023/01/17,02:50,0.552,0.795,0.499,1.024,0.706,0.317,0.576,0.551,��,2.3,��
2023/01/17,03:00,0.552,0.796,0.501,1.024,0.705,0.318,0.575,0.547,���k��,3.2,��
2023/01/17,03:10,0.552,0.796,0.499,1.022,0.706,0.317,0.576,0.551,���k��,3.5,��
2023/01/17,03:20,0.551,0.794,0.500,1.024,0.706,0.318,0.575,0.550,��,2.4,��
2023/01/17,03:30,0.551,0.795,0.501,1.023,0.707,0.318,0.576,0.549,���k��,3.5,��
2023/01/17,03:40,0.553,0.793,0.500,1.021,0.706,0.316,0.575,0.547,��,3.2,��
2023/01/17,03:50,0.551,0.795,0.501,1.024,0.705,0.316,0.574,0.549,���쐼,2.5,��
2023/01/17,04:00,0.552,0.797,0.500,1.019,0.705,0.317,0.576,0.548,��,2.6,��
2023/01/17,04:10,0.553,0.796,0.500,1.023,0.703,0.317,0.576,0.549,��,2.4,��
2023/01/17,04:20,0.552,0.795,0.500,1.023,0.705,0.317,0.575,0.549,���쐼,1.8,��
2023/01/17,04:30,0.551,0.795,0.501,1.021,0.705,0.317,0.576,0.549,���k��,2.3,��
2023/01/17,04:40,0.553,0.794,0.500,1.022,0.707,0.316,0.576,0.548,���k��,2.2,��
2023/01/17,04:50,0.550,0.795,0.502,1.022,0.704,0.317,0.577,0.548,���k��,3.1,��
2023/01/17,05:00,0.552,0.797,0.501,1.021,0.705,0.317,0.575,0.550,���k��,3.2,��
2023/01/17,05:10,0.553,0.793,0.500,1.021,0.705,0.316,0.577,0.548,���k��,3.8,��
2023/01/17,05:20,0.551,0.795,0.500,1.022,0.704,0.317,0.575,0.548,���k��,4.1,��
2023/01/17,05:30,0.552,0.793,0.501,1.024,0.706,0.317,0.575,0.549,��,4.4,��
2023/01/17,05:40,0.551,0.796,0.499,1.023,0.704,0.317,0.574,0.547,���k��,3.6,��
2023/01/17,05:50,0.553,0.794,0.500,1.022,0.704,0.314,0.575,0.550,��,3.9,��
2023/01/17,06:00,0.551,0.793,0.500,1.023,0.705,0.317,0.576,0.548,��,3.9,��
2023/01/17,06:10,0.549,0.794,0.501,1.022,0.705,0.316,0.574,0.549,��,4.4,��
2023/01/17,06:20,0.551,0.796,0.499,1.022,0.706,0.316,0.577,0.548,��,4.6,��
2023/01/17,06:30,0.551,0.795,0.500,1.023,0.703,0.317,0.574,0.547,��,4.4,��
2023/01/17,06:40,0.552,0.792,0.500,1.023,0.704,0.315,0.576,0.547,���k��,4.4,��
2023/01/17,06:50,0.550,0.793,0.500,1.020,0.703,0.315,0.576,0.549,��,3.8,��
2023/01/17,07:00,0.550,0.794,0.499,1.022,0.705,0.317,0.575,0.548,���k��,4.1,��
2023/01/17,07:10,0.551,0.794,0.500,1.022,0.704,0.316,0.575,0.547,���k��,3.8,��
2023/01/17,07:20,0.550,0.794,0.499,1.023,0.703,0.316,0.576,0.549,���k��,3.0,��
2023/01/17,07:30,0.550,0.794,0.501,1.021,0.703,0.317,0.576,0.548,���k��,3.0,��
2023/01/17,07:40,0.551,0.795,0.499,1.021,0.704,0.316,0.575,0.548,���k��,2.3,��
2023/01/17,07:50,0.549,0.794,0.500,1.022,0.704,0.315,0.575,0.549,���k��,1.9,��
2023/01/17,08:00,0.549,0.794,0.500,1.023,0.704,0.318,0.576,0.549,���k��,2.3,��
2023/01/17,08:10,0.551,0.792,0.499,1.023,0.706,0.317,0.577,0.550,���k��,2.2,��
2023/01/17,08:20,0.551,0.791,0.501,1.022,0.704,0.317,0.575,0.549,�k��,1.1,��
2023/01/17,08:30,0.551,0.791,0.499,1.024,0.705,0.315,0.577,0.548,���k��,1.0,��
2023/01/17,08:40,0.552,0.795,0.501,1.022,0.703,0.317,0.576,0.549,���k��,1.7,��
2023/01/17,08:50,0.553,0.796,0.499,1.021,0.704,0.316,0.577,0.549,���k��,1.9,��
2023/01/17,09:00,0.551,0.796,0.500,1.023,0.706,0.317,0.576,0.550,��,1.3,��
2023/01/17,09:10,0.554,0.795,0.501,1.021,0.704,0.317,0.576,0.548,��,1.4,��
2023/01/17,09:20,0.553,0.797,0.500,1.022,0.706,0.316,0.576,0.549,�k��,1.6,��
2023/01/17,09:30,0.553,0.798,0.502,1.025,0.707,0.316,0.578,0.549,�k,1.9,��
2023/01/17,09:40,0.552,0.798,0.502,1.022,0.706,0.316,0.577,0.550,�k�k��,1.7,��
2023/01/17,09:50,0.552,0.796,0.501,1.022,0.707,0.316,0.577,0.547,�k�k��,3.3,��
2023/01/17,10:00,0.554,0.797,0.501,1.023,0.706,0.316,0.576,0.547,�k��,3.0,��
2023/01/17,10:10,0.553,0.795,0.503,1.023,0.706,0.317,0.575,0.549,�k�k��,3.6,��
2023/01/17,10:20,0.554,0.796,0.503,1.024,0.707,0.316,0.576,0.548,�k�k��,4.1,��
2023/01/17,10:30,0.553,0.795,0.503,1.023,0.709,0.315,0.576,0.549,�k��,3.4,��
2023/01/17,10:40,0.555,0.795,0.503,1.023,0.708,0.317,0.575,0.549,�k�k��,4.1,��
2023/01/17,10:50,0.553,0.796,0.504,1.023,0.707,0.317,0.576,0.549,�k,3.9,��
2023/01/17,11:00,0.554,0.797,0.504,1.023,0.707,0.317,0.576,0.549,�k�k��,3.4,��
2023/01/17,11:10,0.553,0.796,0.503,1.025,0.708,0.317,0.577,0.548,�k�k��,3.1,��
2023/01/17,11:20,0.554,0.796,0.504,1.026,0.707,0.317,0.577,0.550,�k,2.7,��
2023/01/17,11:30,0.555,0.798,0.502,1.025,0.708,0.317,0.577,0.550,�k,1.4,��
2023/01/17,11:40,0.558,0.796,0.502,1.024,0.711,0.317,0.576,0.549,�k�k��,1.1,��
2023/01/17,11:50,0.556,0.798,0.504,1.026,0.709,0.317,0.579,0.550,��,4.4,��
2023/01/17,12:00,0.556,0.799,0.503,1.023,0.712,0.317,0.578,0.550,��,3.9,��
2023/01/17,12:10,0.557,0.798,0.506,1.024,0.710,0.317,0.578,0.550,��,4.5,��
2023/01/17,12:20,0.557,0.798,0.504,1.026,0.709,0.317,0.579,0.549,��,4.9,��
2023/01/17,12:30,0.557,0.799,0.504,1.025,0.709,0.318,0.577,0.549,��,4.6,��
2023/01/17,12:40,0.557,0.800,0.503,1.026,0.710,0.316,0.576,0.551,��,1.7,��
2023/01/17,12:50,0.558,0.799,0.503,1.028,0.710,0.319,0.576,0.549,���쐼,2.6,��
2023/01/17,13:00,0.558,0.799,0.505,1.026,0.713,0.319,0.577,0.551,��,6.0,��
2023/01/17,13:10,0.556,0.797,0.505,1.026,0.711,0.318,0.577,0.552,��,5.2,��
2023/01/17,13:20,0.556,0.797,0.505,1.025,0.712,0.319,0.576,0.550,��,7.4,��
2023/01/17,13:30,0.558,0.798,0.505,1.023,0.713,0.320,0.577,0.549,��,6.1,��
2023/01/17,13:40,0.558,0.801,0.504,1.025,0.710,0.317,0.577,0.550,��,6.9,��
2023/01/17,13:50,0.557,0.799,0.505,1.028,0.712,0.320,0.576,0.548,��,6.6,��
2023/01/17,14:00,0.557,0.802,0.504,1.026,0.714,0.319,0.577,0.547,��,8.3,��
2023/01/17,14:10,0.556,0.802,0.506,1.027,0.713,0.318,0.579,0.548,���k��,8.6,��
2023/01/17,14:20,0.559,0.802,0.505,1.025,0.713,0.319,0.577,0.547,���k��,6.0,��
2023/01/17,14:30,0.558,0.801,0.506,1.027,0.712,0.319,0.578,0.549,���k��,6.1,��
2023/01/17,14:40,0.557,0.801,0.506,1.026,0.712,0.318,0.580,0.550,��,3.8,��
2023/01/17,14:50,0.559,0.801,0.506,1.029,0.712,0.318,0.579,0.550,���k��,4.6,��
2023/01/17,15:00,0.560,0.803,0.505,1.029,0.712,0.317,0.580,0.550,���k��,6.1,��
2023/01/17,15:10,0.558,0.804,0.507,1.030,0.714,0.319,0.580,0.549,���k��,5.8,��
2023/01/17,15:20,0.558,0.807,0.506,1.027,0.714,0.318,0.579,0.550,���k��,5.5,��
2023/01/17,15:30,0.559,0.802,0.506,1.026,0.713,0.319,0.579,0.552,��,3.5,��
2023/01/17,15:40,0.558,0.802,0.505,1.027,0.713,0.319,0.580,0.551,���k��,4.4,��
2023/01/17,15:50,0.557,0.803,0.507,1.029,0.714,0.318,0.580,0.553,���k��,4.4,��
2023/01/17,16:00,0.557,0.801,0.505,1.029,0.712,0.319,0.581,0.552,���k��,3.1,��
2023/01/17,16:10,0.557,0.803,0.505,1.029,0.713,0.319,0.580,0.551,���k��,2.6,��
2023/01/17,16:20,0.560,0.805,0.507,1.031,0.713,0.319,0.580,0.552,���k��,4.1,��
2023/01/17,16:30,0.558,0.803,0.508,1.027,0.711,0.318,0.579,0.551,���k��,4.5,��
2023/01/17,16:40,0.557,0.804,0.507,1.029,0.712,0.320,0.578,0.551,�k��,4.5,��
2023/01/17,16:50,0.557,0.803,0.506,1.031,0.713,0.318,0.579,0.551,�k��,4.4,��
2023/01/17,17:00,0.559,0.800,0.506,1.029,0.712,0.319,0.580,0.551,���k��,4.2,��
2023/01/17,17:10,0.557,0.802,0.505,1.029,0.712,0.318,0.579,0.553,���k��,5.0,��
2023/01/17,17:20,0.558,0.806,0.505,1.028,0.713,0.318,0.580,0.551,���k��,5.3,��
2023/01/17,17:30,0.558,0.805,0.506,1.031,0.713,0.319,0.579,0.551,���k��,4.9,��
2023/01/17,17:40,0.557,0.805,0.507,1.028,0.713,0.319,0.580,0.551,���k��,4.2,��
2023/01/17,17:50,0.558,0.803,0.507,1.028,0.713,0.319,0.580,0.551,���k��,3.2,��
2023/01/17,18:00,0.557,0.804,0.506,1.029,0.712,0.319,0.579,0.553,���k��,3.8,��
2023/01/17,18:10,0.557,0.803,0.505,1.026,0.713,0.318,0.578,0.550,���k��,3.1,��
2023/01/17,18:20,0.558,0.803,0.507,1.028,0.712,0.317,0.580,0.550,���k��,3.0,��
2023/01/17,18:30,0.556,0.803,0.506,1.031,0.713,0.318,0.578,0.550,��,3.2,��
2023/01/17,18:40,0.557,0.803,0.507,1.028,0.715,0.318,0.580,0.550,���k��,3.2,��
2023/01/17,18:50,0.557,0.803,0.506,1.029,0.715,0.318,0.580,0.550,���k��,4.2,��
2023/01/17,19:00,0.558,0.805,0.506,1.028,0.713,0.318,0.578,0.552,���k��,5.0,��
2023/01/17,19:10,0.556,0.804,0.507,1.028,0.714,0.319,0.579,0.551,���k��,4.1,��
2023/01/17,19:20,0.557,0.805,0.504,1.028,0.713,0.319,0.580,0.551,���k��,3.6,��
2023/01/17,19:30,0.556,0.804,0.504,1.029,0.715,0.318,0.579,0.551,��,3.9,��
2023/01/17,19:40,0.557,0.803,0.505,1.028,0.711,0.318,0.579,0.551,��,4.1,��
2023/01/17,19:50,0.556,0.804,0.503,1.028,0.714,0.318,0.577,0.551,���쐼,3.5,��
2023/01/17,20:00,0.555,0.804,0.504,1.028,0.714,0.317,0.579,0.550,���쐼,4.2,��
2023/01/17,20:10,0.557,0.803,0.504,1.029,0.714,0.318,0.580,0.549,���쐼,3.2,��
2023/01/17,20:20,0.556,0.805,0.505,1.029,0.716,0.319,0.579,0.549,���쐼,2.3,��
2023/01/17,20:30,0.555,0.804,0.506,1.029,0.713,0.319,0.579,0.550,��,2.3,��
2023/01/17,20:40,0.557,0.803,0.504,1.029,0.714,0.317,0.579,0.551,��,2.2,��
2023/01/17,20:50,0.558,0.805,0.503,1.028,0.713,0.318,0.580,0.550,��,1.8,��
2023/01/17,21:00,0.556,0.805,0.506,1.028,0.714,0.319,0.580,0.550,��,1.3,��
2023/01/17,21:10,0.556,0.805,0.506,1.029,0.714,0.317,0.580,0.550,���k��,1.2,��
2023/01/17,21:20,0.558,0.806,0.506,1.030,0.714,0.318,0.578,0.549,���k��,2.1,��
2023/01/17,21:30,0.557,0.805,0.505,1.029,0.714,0.319,0.579,0.550,���k��,2.3,��
2023/01/17,21:40,0.557,0.804,0.505,1.027,0.712,0.318,0.579,0.550,���k��,2.1,��
2023/01/17,21:50,0.557,0.802,0.506,1.030,0.714,0.318,0.580,0.549,���k��,1.4,��
2023/01/17,22:00,0.556,0.805,0.506,1.030,0.714,0.317,0.580,0.552,��,0.5,��
2023/01/17,22:10,0.558,0.805,0.506,1.030,0.713,0.319,0.579,0.550,���쐼,0.9,��
2023/01/17,22:20,0.555,0.804,0.505,1.029,0.713,0.317,0.579,0.550,���쐼,1.9,��
2023/01/17,22:30,0.557,0.803,0.505,1.028,0.713,0.319,0.579,0.550,���쐼,1.5,��
2023/01/17,22:40,0.557,0.804,0.507,1.028,0.712,0.319,0.579,0.551,���쐼,1.7,��
2023/01/17,22:50,0.558,0.804,0.506,1.027,0.715,0.318,0.580,0.550,���쐼,1.4,��
2023/01/17,23:00,0.557,0.806,0.504,1.029,0.713,0.320,0.579,0.550,��쐼,1.4,��
2023/01/17,23:10,0.557,0.805,0.506,1.030,0.713,0.320,0.580,0.549,�쐼,1.9,��
2023/01/17,23:20,0.559,0.805,0.505,1.029,0.713,0.319,0.580,0.550,��쐼,2.2,��
2023/01/17,23:30,0.558,0.804,0.507,1.029,0.714,0.318,0.579,0.551,��쐼,1.8,��
2023/01/17,23:40,0.558,0.805,0.506,1.028,0.715,0.319,0.582,0.551,�쐼,2.0,��
2023/01/17,23:50,0.557,0.805,0.507,1.028,0.715,0.320,0.580,0.551,��쐼,1.5,��
